Regional Weather Roundup
Issued by NWS Cleveland, OH

Home | Current Version | Previous Version | Graphics & Text | Print | Product List | Glossary On
Versions: 1 2 3 4 5 6 7 8 9 10 11 12 13 14 15 16 17 18 19 20 21 22 23 24 25 26 27 28 29 30 31 32 33 34 35 36 37 38 39 40 41 42 43 44 45 46 47 48 49 50
000
ASUS41 KCLE 250310
RWRCLE
OHIO REGIONAL WEATHER ROUNDUP
NATIONAL WEATHER SERVICE CLEVELAND, OH
1100 PM EDT SAT JUN 24 2017

NOTE: "FAIR" INDICATES FEW OR NO CLOUDS BELOW 12,000 FEET WITH NO
SIGNIFICANT WEATHER AND/OR OBSTRUCTIONS TO VISIBILITY.

OHZ001>008-015>018-024>027-034-035-043-044-250400-
   NORTHWEST OHIO

CITY           SKY/WX    TMP DP  RH WIND       PRES   REMARKS
DEFIANCE       CLOUDY    64  49  57 CALM      30.04R
FINDLAY        MOCLDY    66  54  65 W6        30.03R
TOLEDO EXPRESS CLEAR     63  51  65 W6        30.03R
TOLEDO EXEC    PTCLDY    66  50  56 W8        30.03R
LIMA           PTCLDY    64  52  64 W8        30.06R
$$

OHZ009>014-019>023-028>033-038-089-250400-
   NORTHEAST OHIO

CITY           SKY/WX    TMP DP  RH WIND       PRES   REMARKS
CLE-HOPKINS    PTCLDY    70  53  54 W7        30.02R
CLE-LAKEFRONT  CLEAR     70  59  68 W15       29.98R
CUY CO. ARPT   PTCLDY    70  57  64 W12       30.00R
LORAIN-ELYRIA  PTCLDY    65  52  62 W5        30.02R
ASHTABULA      MOCLDY    65  57  75 CALM      30.00R
AKRON-CANTON   PTCLDY    68  54  60 W6        30.02R
WOOSTER        PTCLDY    65  56  72 W6        30.03R
MANSFIELD      MOCLDY    65  55  70 W6        30.04R
YOUNGSTOWN     CLOUDY    61  58  90 SW3       30.00R
$$

OHZ042-051>053-060>062-070>072-077>081-250400-
  SOUTHWEST OHIO

CITY           SKY/WX    TMP DP  RH WIND       PRES   REMARKS
CINC-COVINGTON PTCLDY    68  54  60 NW9       30.10R
CINC-LUNKEN    PTCLDY    72  53  51 NW7       30.10R
HAMILTON       CLEAR     67  54  63 W8        30.11R
DAYTON         PTCLDY    65  51  60 W10       30.09R
WRIGHT-PAT AFB NOT AVBL
DAYTON GENERAL CLEAR     67  52  58 W5        30.09R
WILMINGTON     CLOUDY    67  56  67 W9        30.08R
$$

OHZ036-037-039>041-045>050-054>059-063>069-073>076-082>088-250400-
  CENTRAL AND SOUTHEAST OHIO

CITY           SKY/WX    TMP DP  RH WIND       PRES   REMARKS
COLUMBUS       CLOUDY    69  55  60 W9        30.04R
OSU AIRPORT    CLEAR     66  56  70 W8        30.05R
BOLTON FIELD   NOT AVBL
RICKENBACK AFB CLOUDY    68  56  65 NW8       30.05R
NEWARK         CLEAR     65  56  72 W6        30.04R
MARION         PTCLDY    67  53  61 W7        30.05R
LANCASTER      PTCLDY    71  56  58 W5        30.05R
ZANESVILLE     CLEAR     68  58  70 SW5       30.04R
NEW PHILLY     NOT AVBL
$$




USA.gov is the U.S. government's official web portal to all federal, state and local government web resources and services.